Regional Weather Roundup
Issued by NWS

Home | Current Version | Previous Version | Text Only | Print | Product List | Glossary Off
Versions: 1 2 3 4 5 6 7 8 9 10 11 12 13 14 15 16 17 18 19 20 21 22 23 24 25 26 27 28 29 30 31 32 33 34 35 36 37 38 39 40 41 42 43 44 45 46 47 48 49 50

000
ASUS43 KLSX 290207
RWRMO

WEATHER SUMMARY FOR MISSOURI
NATIONAL WEATHER SERVICE SPRINGFIELD MO
900 PM CDT THU AUG 28 2014

NOTE: "FAIR" INDICATES FEW OR NO CLOUDS BELOW 12,000 FEET WITH NO
       SIGNIFICANT WEATHER AND/OR OBSTRUCTIONS TO VISIBILITY.
       CURRENT SKY AND/OR WEATHER CONDITIONS ARE NOT AVAILABLE FOR
       CHILLICOTHE AND FARMINGTON.

MOZ001>031-035>038-043-044-053-054-290300-
...NORTHERN AND WESTERN MISSOURI...

CITY           SKY/WX    TMP DP  RH WIND       PRES   REMARKS
KANSAS CTY INT PTCLDY    82  65  56 S12       29.85R
KANSAS C DTWN  CLEAR     86  64  47 S8        29.84S
LEE`S SUMMIT   CLEAR     82  67  60 S7        29.87F
ST JOSEPH      PTCLDY    78  71  79 S7        29.83S
CHILLICOTHE      N/A     81  71  71 SE5       29.88F
KIRKSVILLE     CLEAR     76  72  87 E9        29.93S

$$
MOZ066>068-077>081-088>096-101>105-290300-
...SOUTHWEST MISSOURI...

CITY           SKY/WX    TMP DP  RH WIND       PRES   REMARKS
SPRINGFIELD    CLEAR     82  59  45 S8        29.94R
JOPLIN         CLEAR     79  62  56 S6        29.92S

$$
MOZ032>034-039>042-045>050-055>058-069>072-290300-
...CENTRAL MISSOURI...

CITY           SKY/WX    TMP DP  RH WIND       PRES   REMARKS
COLUMBIA       CLEAR     82  67  60 SE6       29.93R
JEFFERSON CITY CLEAR     79  70  74 SE3       29.90S
ROLLA          CLEAR     79  64  60 SE8       29.94S
SEDALIA        CLEAR     80  68  66 S6        29.91S
WHITEMAN AFB   CLEAR     78  70  75 SE6       29.89S
OSAGE BEACH    CLEAR     82  63  51 SE5       29.93R

$$
MOZ051-052-059>065-290300-
...EAST CENTRAL MISSOURI...

CITY           SKY/WX    TMP DP  RH WIND       PRES   REMARKS
ST LOUIS INTL  MOCLDY    79  70  74 SE10      29.98S
SPIRIT OF STL  MOCLDY    76  71  85 E5        29.95S
ST CHARLES     MOCLDY    74  71  91 E8        29.96S

$$
MOZ072>076-082>087-097>100-106>115-290300-
...SOUTH CENTRAL AND SOUTHEAST MISSOURI...

CITY           SKY/WX    TMP DP  RH WIND       PRES   REMARKS
CAPE GIRARDEAU MOCLDY    73  71  93 CALM      29.99R
FARMINGTON     MOCLDY    73  70  88 CALM      30.02R
POPLAR BLUFF   PTCLDY    80  70  71 NE7       29.96R
WEST PLAINS    CLEAR     80  62  54 SE5       29.99R

$$



USA.gov is the U.S. government's official web portal to all federal, state and local government web resources and services.